******************************************************************************* JPL/HORIZONS Tsuchinshan-ATLAS (C/2023 A3) 2025-May-16 06:41:59 Rec #:90004784 (+COV) Soln.date: 2025-May-15_11:42:14 # obs: 6131 (2022-2025) IAU76/J2000 helio. ecliptic osc. elements (au, days, deg., period=Julian yrs): EPOCH= 2460376.5 ! 2024-Mar-07.0000000 (TDB) RMSW= n.a. EC= 1.000114180760185 QR= .3914501146059943 TP= 2460581.2379810633 OM= 21.55903967593578 W= 308.4889250424537 IN= 139.1138743518552 A= -3428.336910454852 MA= -.001005257330143075ADIST= 9.999999E99 PER= 9.999999E99 N= 4.91E-6 ANGMOM= .015221135 DAN= .48257 DDN= 2.07367 L= 65.11475919999999 B= -30.8198885 MOID= .27506399 TP= 2024-Sep-27.7379810633 Comet physical (GM= km^3/s^2; RAD= km): GM= n.a. RAD= n.a. M1= 8.9 M2= n.a. k1= 5. k2= n.a. PHCOF= n.a. Comet non-gravitational force model (AMRAT=m^2/kg;A1-A3=au/d^2;DT=days;R0=au): AMRAT= 0. DT= 0. A1= 1.390622496605E-8 A2= 6.831293553114E-10 A3= 0. Standard model: ALN= .1112620426 NK= 4.6142 NM= 2.15 NN= 5.093 R0= 2.808 COMET comments 1: soln ref.= JPL#90, data arc: 2022-04-09 to 2025-05-15 2: k1=5.; ******************************************************************************* ******************************************************************************* Ephemeris / WWW_USER Fri May 16 06:41:59 2025 Pasadena, USA / Horizons ******************************************************************************* Target body name: Tsuchinshan-ATLAS (C/2023 A3) {source: JPL#90} Center body name: Solar System Barycenter (0) {source: DE441} Center-site name: BODY CENTER ******************************************************************************* Start time : A.D. 1800-Jan-01 00:00:00.0000 TDB Stop time : A.D. 2200-Jan-01 00:00:00.0000 TDB Step-size : 400 calendar years ******************************************************************************* Center geodetic : 0.0, 0.0, 0.0 {E-lon(deg),Lat(deg),Alt(km)} Center cylindric: 0.0, 0.0, 0.0 {E-lon(deg),Dxy(km),Dz(km)} Center radii : (undefined) Keplerian GM : 2.9630927493968080E-04 au^3/d^2 Small perturbers: Yes {source: SB441-N16} Output units : AU-D, deg, Julian Day Number (Tp) Calendar mode : Mixed Julian/Gregorian Output type : GEOMETRIC osculating elements Output format : 10 Reference frame : Ecliptic of J2000.0 ******************************************************************************* Initial IAU76/J2000 heliocentric ecliptic osculating elements (au, days, deg.): EPOCH= 2460376.5 ! 2024-Mar-07.0000000 (TDB) RMSW= n.a. EC= 1.000114180760185 QR= .3914501146059943 TP= 2460581.2379810633 OM= 21.55903967593578 W= 308.4889250424537 IN= 139.1138743518552 Equivalent ICRF heliocentric cartesian coordinates (au, au/d): X=-2.951588108025882E+00 Y=-1.812768118913873E+00 Z=-2.592316596992248E-01 VX= 8.395287218457254E-03 VY= 9.981861612601034E-03 VZ=-5.921487562879945E-04 Comet physical (GM= km^3/s^2; RAD= km): GM= n.a. RAD= n.a. M1= 8.9 M2= n.a. k1= 5. k2= n.a. PHCOF= n.a. Comet non-gravitational force model (AMRAT=m^2/kg;A1-A3=au/d^2;DT=days;R0=au): AMRAT= 0. DT= 0. A1= 1.390622496605E-8 A2= 6.831293553114E-10 A3= 0. Standard model: ALN= .1112620426 NK= 4.6142 NM= 2.15 NN= 5.093 R0= 2.808 ******************************************************************************* JDTDB EC QR IN OM W Tp N MA TA A AD PR ******************************************************************************* $$SOE 2378496.500000000 = A.D. 1800-Jan-01 00:00:00.0000 TDB EC= 9.999953108293619E-01 QR= 3.910865445848194E-01 IN= 1.390358401863459E+02 OM= 2.158041791681864E+01 W = 3.085830051220747E+02 Tp= 2460581.917657474056 N = 4.094774587123918E-08 MA= 3.599966387871780E+02 TA= 1.849739696353852E+02 A = 8.340207145321336E+04 AD= 1.668037518198821E+05 PR= 8.791692737666819E+09 2524593.500000000 = A.D. 2200-Jan-01 00:00:00.0000 TDB EC= 1.000026820039491E+00 QR= 3.880304127724415E-01 IN= 1.391246838967089E+02 OM= 2.160189360323151E+01 W = 3.084065604249689E+02 Tp= 2460581.258174119983 N = 5.667424276664804E-07 MA= 3.627845333277304E-02 TA= 1.746004320499640E+02 A =-1.446792846445539E+04 AD= 9.999999999999998E+99 PR= 9.999999999999998E+99 $$EOE ******************************************************************************* TIME Barycentric Dynamical Time ("TDB" or T_eph) output was requested. This continuous coordinate time is equivalent to the relativistic proper time of a clock at rest in a reference frame co-moving with the solar system barycenter but outside the system's gravity well. It is the independent variable in the solar system relativistic equations of motion. TDB runs at a uniform rate of one SI second per second and is independent of irregularities in Earth's rotation. CALENDAR SYSTEM Mixed calendar mode was active such that calendar dates after AD 1582-Oct-15 (if any) are in the modern Gregorian system. Dates prior to 1582-Oct-5 (if any) are in the Julian calendar system, which is automatically extended for dates prior to its adoption on 45-Jan-1 BC. The Julian calendar is useful for matching historical dates. The Gregorian calendar more accurately corresponds to the Earth's orbital motion and seasons. A "Gregorian-only" calendar mode is available if such physical events are the primary interest. REFERENCE FRAME AND COORDINATES Ecliptic at the standard reference epoch Reference epoch: J2000.0 X-Y plane: adopted Earth orbital plane at the reference epoch Note: IAU76 obliquity of 84381.448 arcseconds wrt ICRF X-Y plane X-axis : ICRF Z-axis : perpendicular to the X-Y plane in the directional (+ or -) sense of Earth's north pole at the reference epoch. Symbol meaning [1 au= 149597870.700 km, 1 day= 86400.0 s]: JDTDB Julian Day Number, Barycentric Dynamical Time EC Eccentricity, e QR Periapsis distance, q (au) IN Inclination w.r.t X-Y plane, i (degrees) OM Longitude of Ascending Node, OMEGA, (degrees) W Argument of Perifocus, w (degrees) Tp Time of periapsis (Julian Day Number) N Mean motion, n (degrees/day) MA Mean anomaly, M (degrees) TA True anomaly, nu (degrees) A Semi-major axis, a (au) AD Apoapsis distance (au) PR Sidereal orbit period (day) ABERRATIONS AND CORRECTIONS Geometric osculating elements have NO corrections or aberrations applied. Computations by ... Solar System Dynamics Group, Horizons On-Line Ephemeris System 4800 Oak Grove Drive, Jet Propulsion Laboratory Pasadena, CA 91109 USA General site: https://ssd.jpl.nasa.gov/ Mailing list: https://ssd.jpl.nasa.gov/email_list.html System news : https://ssd.jpl.nasa.gov/horizons/news.html User Guide : https://ssd.jpl.nasa.gov/horizons/manual.html Connect : browser https://ssd.jpl.nasa.gov/horizons/app.html#/x API https://ssd-api.jpl.nasa.gov/doc/horizons.html command-line telnet ssd.jpl.nasa.gov 6775 e-mail/batch https://ssd.jpl.nasa.gov/ftp/ssd/horizons_batch.txt scripts https://ssd.jpl.nasa.gov/ftp/ssd/SCRIPTS Author : Jon.D.Giorgini@jpl.nasa.gov ******************************************************************************* !$$SOF COMMAND = '2023 A3' TABLE_TYPE = 'ELEMENTS' START_TIME = '1800-01-01' STOP_TIME = '2200-01-01' STEP_SIZE = '400 years' CENTER = '@0' OUT_UNITS = 'AU-D'